Weather History for Cape Cod CGAS, MA

Change the Weather History Date:

Sunday, February 26, 2012

  Actual Average Record
Temperature  
Mean Temperature 34 °F -  
Max Temperature 41 °F 39 °F 57 °F (2002)
Min Temperature 28 °F 22 °F 1 °F (2005)
Degree Days  
Heating Degree Days 30    
Moisture  
Dew Point 7 °F    
Average Humidity 35    
Maximum Humidity 60    
Minimum Humidity 20    
Precipitation  
Precipitation 0.00 in - - ()
Sea Level Pressure  
Sea Level Pressure 30.15 in    
Wind  
Wind Speed 20 mph (WNW)    
Max Wind Speed 28 mph    
Max Gust Speed 37 mph    
Visibility 10 miles    
Events      
Averages and records for this station are not official NWS values.
T = Trace of Precipitation, MM = Missing Value Source: NWS Daily Summary

Daily Weather History Graph

Daily Weather History Graph

Search for Another Location

Airport:

Trip Planner

Search our weather history database for the weather conditions in past years. The results will help you decide how hot, cold, wet, or windy it might be!

Date:

Astronomy

Feb. 26, 2012 Rise Set
Actual Time 6:22 AM EST 5:28 PM EST
Civil Twilight 5:54 AM EST 5:56 PM EST
Nautical Twilight 5:22 AM EST 6:28 PM EST
Astronomical Twilight 4:50 AM EST 7:00 PM EST
Moon 8:10 AM EST (2/26) 10:28 PM EST (2/26)
Length of Visible Light 12h 02m
Length of Day
11h 06m
Waxing Crescent, 20% of the Moon is Illuminated
Feb 26
Waxing Crescent
Feb 29
First Quarter
Mar 8
Full
Mar 14
Last Quarter
Mar 22
New

Hourly Weather History & Observations

Time (EST) Temp. Windchill Dew Point Humidity Pressure Visibility Wind Dir Wind Speed Gust Speed Precip Events Conditions
12:15 AM 32.0 °F 18.6 °F 15.8 °F 51% 29.80 in 10.0 mi WNW 25.3 mph 33.4 mph N/A   Scattered Clouds
12:35 AM 32.0 °F 20.1 °F 17.6 °F 55% 29.81 in 10.0 mi WNW 19.6 mph 34.5 mph N/A   Clear
12:55 AM 32.0 °F 18.9 °F 17.6 °F 55% 29.83 in 10.0 mi WNW 24.2 mph 31.1 mph N/A   Clear
1:15 AM 32.0 °F 21.2 °F 17.6 °F 55% 29.84 in 10.0 mi WNW 16.1 mph 26.5 mph N/A   Clear
1:35 AM 32.0 °F 19.2 °F 17.6 °F 55% 29.86 in 10.0 mi WNW 23.0 mph 29.9 mph N/A   Clear
1:55 AM 32.0 °F 20.8 °F 17.6 °F 55% 29.86 in 10.0 mi WNW 17.3 mph 27.6 mph N/A   Clear
2:15 AM 30.2 °F 17.4 °F 17.6 °F 60% 29.88 in 10.0 mi WNW 20.7 mph 27.6 mph N/A   Clear
2:35 AM 30.2 °F 18.5 °F 17.6 °F 60% 29.89 in 10.0 mi WNW 17.3 mph 33.4 mph N/A   Clear
2:55 AM 30.2 °F 17.8 °F 15.8 °F 55% 29.91 in 10.0 mi WNW 19.6 mph 29.9 mph N/A   Clear
3:15 AM 30.2 °F 17.8 °F 15.8 °F 55% 29.92 in 10.0 mi WNW 19.6 mph 27.6 mph N/A   Clear
3:35 AM 30.2 °F 16.8 °F 14.0 °F 51% 29.93 in 10.0 mi WNW 23.0 mph 33.4 mph N/A   Clear
3:55 AM 28.4 °F 15.4 °F 14.0 °F 55% 29.96 in 10.0 mi WNW 19.6 mph 27.6 mph N/A   Clear
4:15 AM 28.4 °F 14.1 °F 14.0 °F 55% 29.98 in 10.0 mi WNW 24.2 mph 31.1 mph N/A   Clear
4:35 AM 28.4 °F 14.7 °F 12.2 °F 51% 29.99 in 10.0 mi WNW 21.9 mph 33.4 mph N/A   Clear
4:55 AM 28.4 °F 15.1 °F 10.4 °F 47% 30.00 in 10.0 mi WNW 20.7 mph 27.6 mph N/A   Clear
5:15 AM 28.4 °F 15.4 °F 10.4 °F 47% 30.01 in 10.0 mi WNW 19.6 mph 27.6 mph N/A   Clear
5:35 AM 28.4 °F 14.1 °F 8.6 °F 43% 30.03 in 10.0 mi WNW 24.2 mph 32.2 mph N/A   Clear
5:55 AM 28.4 °F 14.4 °F 8.6 °F 43% 30.05 in 10.0 mi WNW 23.0 mph 35.7 mph N/A   Clear
6:15 AM 28.4 °F 14.7 °F 8.6 °F 43% 30.07 in 10.0 mi WNW 21.9 mph 31.1 mph N/A   Clear
6:35 AM 28.4 °F 14.1 °F 6.8 °F 40% 30.08 in 10.0 mi WNW 24.2 mph 31.1 mph N/A   Clear
6:55 AM 28.4 °F 13.5 °F 6.8 °F 40% 30.11 in 10.0 mi WNW 26.5 mph 36.8 mph N/A   Clear
7:15 AM 28.4 °F 13.3 °F 6.8 °F 40% 30.13 in 10.0 mi WNW 27.6 mph 34.5 mph N/A   Clear
7:35 AM 28.4 °F 14.4 °F 6.8 °F 40% 30.14 in 10.0 mi WNW 23.0 mph 32.2 mph N/A   Clear
7:55 AM 30.2 °F 16.5 °F 6.8 °F 37% 30.16 in 10.0 mi WNW 24.2 mph 29.9 mph N/A   Clear
8:15 AM 30.2 °F 16.5 °F 5.0 °F 34% 30.16 in 10.0 mi WNW 24.2 mph 31.1 mph N/A   Clear
8:35 AM 32.0 °F 19.8 °F 5.0 °F 32% 30.18 in 10.0 mi WNW 20.7 mph 31.1 mph N/A   Clear
8:55 AM 32.0 °F 18.6 °F 1.4 °F 27% 30.19 in 10.0 mi WNW 25.3 mph 31.1 mph N/A   Clear
9:15 AM 32.0 °F 20.1 °F 1.4 °F 27% 30.20 in 10.0 mi WNW 19.6 mph 31.1 mph N/A   Clear
9:35 AM 32.0 °F 20.1 °F -0.4 °F 25% 30.21 in 10.0 mi WNW 19.6 mph 29.9 mph N/A   Clear
9:55 AM 33.8 °F 22.5 °F 1.4 °F 25% 30.22 in 10.0 mi WNW 19.6 mph 27.6 mph N/A   Clear
10:15 AM 35.6 °F 26.2 °F 1.4 °F 24% 30.23 in 10.0 mi NW 15.0 mph 24.2 mph N/A   Clear
10:35 AM 35.6 °F 24.8 °F -0.4 °F 22% 30.23 in 10.0 mi NW 19.6 mph 31.1 mph N/A   Clear
10:55 AM 37.4 °F 27.5 °F 1.4 °F 22% 30.24 in 10.0 mi WNW 18.4 mph 26.5 mph N/A   Clear
11:15 AM 37.4 °F 28.2 °F -0.4 °F 20% 30.25 in 10.0 mi WNW 16.1 mph 29.9 mph N/A   Clear
11:35 AM 37.4 °F 26.4 °F 1.4 °F 22% 30.25 in 10.0 mi WNW 23.0 mph 29.9 mph N/A   Clear
11:55 AM 37.4 °F 26.6 °F 1.4 °F 22% 30.25 in 10.0 mi WNW 21.9 mph 28.8 mph N/A   Clear
12:15 PM 37.4 °F 27.2 °F 1.4 °F 22% 30.26 in 10.0 mi WNW 19.6 mph 28.8 mph N/A   Clear
12:35 PM 39.2 °F 30.5 °F 3.2 °F 22% 30.26 in 10.0 mi WNW 16.1 mph 26.5 mph N/A   Clear
12:55 PM 37.4 °F 26.9 °F 1.4 °F 22% 30.26 in 10.0 mi WNW 20.7 mph 27.6 mph N/A   Clear
1:15 PM 39.2 °F 30.5 °F 1.4 °F 21% 30.26 in 10.0 mi WNW 16.1 mph 28.8 mph N/A   Clear
1:35 PM 39.2 °F 30.5 °F 3.2 °F 22% 30.26 in 10.0 mi WNW 16.1 mph 25.3 mph N/A   Clear
1:55 PM 39.2 °F 30.8 °F 3.2 °F 22% 30.27 in 10.0 mi NW 15.0 mph 26.5 mph N/A   Clear
2:15 PM 39.2 °F 30.2 °F 1.4 °F 21% 30.27 in 10.0 mi WNW 17.3 mph 24.2 mph N/A   Clear
2:35 PM 39.2 °F 31.2 °F 1.4 °F 21% 30.27 in 10.0 mi West 13.8 mph 20.7 mph N/A   Clear
2:55 PM 41.0 °F 34.3 °F 3.2 °F 21% 30.28 in 10.0 mi WNW 11.5 mph 21.9 mph N/A   Clear
3:15 PM 41.0 °F 33.5 °F 3.2 °F 21% 30.29 in 10.0 mi West 13.8 mph 20.7 mph N/A   Clear
3:35 PM 39.2 °F 32.0 °F 1.4 °F 21% 30.29 in 10.0 mi WNW 11.5 mph - N/A   Clear
3:55 PM 39.2 °F 30.5 °F 1.4 °F 21% 30.30 in 10.0 mi NW 16.1 mph 21.9 mph N/A   Clear
4:15 PM 39.2 °F 31.2 °F 1.4 °F 21% 30.32 in 10.0 mi WNW 13.8 mph - N/A   Clear
4:35 PM 39.2 °F 32.0 °F 1.4 °F 21% 30.33 in 10.0 mi NW 11.5 mph 18.4 mph N/A   Clear
4:55 PM 37.4 °F 28.9 °F 3.2 °F 24% 30.34 in 10.0 mi WNW 13.8 mph 19.6 mph N/A   Clear
5:15 PM 37.4 °F 30.3 °F 5.0 °F 26% 30.35 in 10.0 mi WNW 10.4 mph - N/A   Clear
5:35 PM 35.6 °F 28.0 °F 5.0 °F 28% 30.35 in 10.0 mi WNW 10.4 mph - N/A   Clear
5:55 PM 32.0 °F 26.4 °F 6.8 °F 35% 30.36 in 10.0 mi WNW 5.8 mph - N/A   Clear
6:15 PM 32.0 °F 24.2 °F 6.8 °F 35% 30.37 in 10.0 mi West 9.2 mph - N/A   Clear
6:35 PM 32.0 °F 28.7 °F 6.8 °F 35% 30.38 in 10.0 mi West 3.5 mph - N/A   Clear
6:55 PM 32.0 °F 26.4 °F 8.6 °F 38% 30.39 in 10.0 mi WNW 5.8 mph - N/A   Clear
7:15 PM 32.0 °F 24.2 °F 8.6 °F 38% 30.40 in 10.0 mi WNW 9.2 mph - N/A   Clear
7:35 PM 32.0 °F 26.4 °F 6.8 °F 35% 30.41 in 10.0 mi WNW 5.8 mph - N/A   Clear
7:55 PM 32.0 °F 28.7 °F 6.8 °F 35% 30.42 in 10.0 mi WNW 3.5 mph - N/A   Clear
8:15 PM 32.0 °F 26.4 °F 6.8 °F 35% 30.42 in 10.0 mi WNW 5.8 mph - N/A   Clear
8:35 PM 32.0 °F - 6.8 °F 35% 30.42 in 10.0 mi Calm Calm - N/A   Clear
8:55 PM 26.6 °F 18.2 °F 10.4 °F 51% 30.42 in 10.0 mi West 8.1 mph - N/A   Clear
9:15 PM 28.4 °F - 8.6 °F 43% 30.43 in 10.0 mi Calm Calm - N/A   Clear
9:35 PM 28.4 °F 22.2 °F 8.6 °F 43% 30.43 in 10.0 mi NW 5.8 mph - N/A   Clear
9:55 PM 28.4 °F 21.2 °F 8.6 °F 43% 30.44 in 10.0 mi WNW 6.9 mph - N/A   Clear
10:15 PM 28.4 °F - 8.6 °F 43% 30.44 in 10.0 mi Calm Calm - N/A   Clear
10:35 PM 26.6 °F 22.6 °F 8.6 °F 47% 30.43 in 10.0 mi WNW 3.5 mph - N/A   Clear
10:55 PM 28.4 °F 24.6 °F 8.6 °F 43% 30.44 in 10.0 mi West 3.5 mph - N/A   Clear
11:15 PM 24.8 °F 17.9 °F 10.4 °F 54% 30.43 in 10.0 mi NW 5.8 mph - N/A   Clear
11:55 PM 26.6 °F - 8.6 °F 47% 30.45 in 10.0 mi Calm Calm - N/A   Mostly Cloudy